M I D A S
Marine Information and Data Acquisition System
Tripno 2321 of the Zeeleeuw from 2012-05-31 04:54:38 to 2012-05-31 15:54:25
Back to CruiseResearch ActivitiesStationsMapUnderway DataData graphs

EquipmentUnitsComments
TimeDGPSUTC
LatitudeDGPSDM.mWGS84
LongitudeDGPSDM.mWGS84
SpeedMeteo Stationm/sRelative wind speed
DirectionMeteo StationdegRelative wind direction
TemperatureMeteo Stationdeg CelciusAir temperature
PressureMeteo StationPaAtmospheric pressure
HumidityMeteo Station%Relative humidity
Missing or incorrect values are displayed as -999
Metereological data collected by the RV Zeeleeuw from 2012-05-31 04:37:31 to 2012-05-31 16:00:00
Time Latitude Longitude Speed Direction Temperature Pressure Humidity
2012-05-31 04:38 51°13.647 2°55.947 0.1 45 13.2 101820 38
2012-05-31 04:39 51°13.668 2°55.853 -999 42 13.2 101820 37
2012-05-31 04:40 51°13.713 2°55.754 -999 24 13.2 101820 37
2012-05-31 04:41 51°13.778 2°55.668 -999 29 13.2 101810 37
2012-05-31 04:42 51°13.849 2°55.61 -999 21 13.1 101820 36
2012-05-31 04:43 51°13.917 2°55.6 0.1 -999 13.1 101820 37
2012-05-31 04:44 51°13.966 2°55.628 -999 357 13.1 101810 37
2012-05-31 04:45 51°13.981 2°55.636 -999 315 13.1 101810 37
2012-05-31 04:46 51°14.008 2°55.568 -999 24 13.1 101810 37
2012-05-31 04:47 51°14.096 2°55.47 -999 24 13 101810 37
2012-05-31 04:48 51°14.207 2°55.36 -999 24 13 101810 37
2012-05-31 04:49 51°14.334 2°55.242 7.9 27 13 101800 38
2012-05-31 04:50 51°14.476 2°55.115 8.5 21 13 101790 35
2012-05-31 04:51 51°14.617 2°54.961 10.5 23 13 101790 37
2012-05-31 04:52 51°14.77 2°54.774 12.7 27 12.9 101780 37
2012-05-31 04:53 51°14.929 2°54.597 10.6 24 12.9 101780 38
2012-05-31 04:54 51°15.081 2°54.409 11.6 26 12.9 101790 38
2012-05-31 04:55 51°15.237 2°54.228 5.7 27 12.9 101770 38
2012-05-31 04:56 51°15.395 2°54.046 12.4 27 12.9 101770 38
2012-05-31 04:57 51°15.549 2°53.851 6.4 25 12.8 101760 38
2012-05-31 04:58 51°15.699 2°53.665 13 21 12.8 101760 36
2012-05-31 04:59 51°15.846 2°53.468 6.8 25 12.7 101750 37
2012-05-31 05:00 51°15.987 2°53.253 10.8 27 12.6 101760 38
2012-05-31 05:01 51°16.132 2°53.044 12.1 21 12.6 101760 38
2012-05-31 05:02 51°16.283 2°52.864 12.3 24 12.6 101740 37
2012-05-31 05:03 51°16.446 2°52.711 9.1 23 12.6 101760 38
2012-05-31 05:04 51°16.618 2°52.589 9.1 25 12.5 101760 38
2012-05-31 05:05 51°16.797 2°52.493 11.8 21 12.5 101780 38
2012-05-31 05:06 51°16.979 2°52.412 10.5 19 12.4 101780 37
2012-05-31 05:07 51°17.164 2°52.375 8.8 252 12.4 101770 38
2012-05-31 05:08 51°17.351 2°52.341 10.6 250 12.3 101790 38
2012-05-31 05:09 51°17.541 2°52.323 10.1 252 12.3 101760 37
2012-05-31 05:10 51°17.73 2°52.308 10.3 252 12.2 101780 38
2012-05-31 05:11 51°17.917 2°52.289 8.5 258 12.1 101770 38
2012-05-31 05:12 51°18.106 2°52.276 7 250 12.1 101770 37
2012-05-31 05:13 51°18.296 2°52.284 8.5 252 12.1 101770 38
2012-05-31 05:14 51°18.485 2°52.292 9.5 258 12.1 101770 36
2012-05-31 05:15 51°18.674 2°52.299 8.9 251 12 101770 37
2012-05-31 05:16 51°18.864 2°52.293 7.5 254 11.9 101760 37
2012-05-31 05:17 51°19.057 2°52.294 8.7 254 11.9 101760 37
2012-05-31 05:18 51°19.25 2°52.293 7.8 255 11.9 101760 37
2012-05-31 05:19 51°19.443 2°52.301 7.6 21 11.9 101750 37
2012-05-31 05:20 51°19.635 2°52.3 8.4 255 11.9 101750 37
2012-05-31 05:21 51°19.828 2°52.302 9.1 252 11.9 101750 37
2012-05-31 05:22 51°20.019 2°52.319 9.4 260 11.8 101740 36
2012-05-31 05:23 51°20.212 2°52.334 8.8 257 11.7 101760 37
2012-05-31 05:24 51°20.403 2°52.346 7.8 256 11.6 101760 37
2012-05-31 05:25 51°20.595 2°52.367 7.8 254 11.7 101760 37
2012-05-31 05:26 51°20.786 2°52.379 8.1 21 11.6 101760 37
2012-05-31 05:27 51°20.978 2°52.398 9.1 258 11.6 101750 38
2012-05-31 05:28 51°21.135 2°52.562 -999 269 11.6 101760 37
2012-05-31 05:29 51°21.283 2°52.771 -999 25 11.6 101760 37
2012-05-31 05:30 51°21.427 2°52.991 -999 25 11.6 101760 36
2012-05-31 05:31 51°21.57 2°53.204 -999 24 11.5 101760 38
2012-05-31 05:32 51°21.719 2°53.414 -999 24 11.4 101760 37
2012-05-31 05:33 51°21.865 2°53.633 -999 269 11.4 101760 37
2012-05-31 05:34 51°22.017 2°53.838 -999 24 11.3 101760 37
2012-05-31 05:35 51°22.181 2°54.013 7.9 263 11.3 101760 37
2012-05-31 05:36 51°22.375 2°54.031 8 255 11.4 101750 37
2012-05-31 05:37 51°22.572 2°54.024 8.5 20 11.4 101730 37
2012-05-31 05:38 51°22.771 2°54.011 8.4 250 11.4 101750 38
2012-05-31 05:39 51°22.968 2°54.011 8.7 251 11.3 101740 37
2012-05-31 05:40 51°23.164 2°54.016 7.6 256 11.3 101740 37
2012-05-31 05:41 51°23.36 2°54.014 8.4 250 11.3 101730 38
2012-05-31 05:42 51°23.556 2°54.005 9.9 254 11.3 101740 37
2012-05-31 05:43 51°23.754 2°53.994 10.2 250 11.2 101740 37
2012-05-31 05:44 51°23.952 2°53.991 9 253 11.2 101730 37
2012-05-31 05:45 51°24.15 2°53.992 9.2 256 11.2 101740 37
2012-05-31 05:46 51°24.349 2°53.991 7.8 20 11.2 101730 36
2012-05-31 05:47 51°24.545 2°53.991 10.9 255 11.1 101730 37
2012-05-31 05:48 51°24.739 2°53.984 9 251 11.2 101720 37
2012-05-31 05:49 51°24.933 2°53.98 9 250 11.1 101720 37
2012-05-31 05:50 51°25.126 2°53.971 8.7 255 11.1 101740 36
2012-05-31 05:51 51°25.317 2°53.964 6.9 250 11.1 101730 37
2012-05-31 05:52 51°25.512 2°53.96 9.8 252 11.1 101730 37
2012-05-31 05:53 51°25.701 2°53.926 9.6 249 11.1 101730 36
2012-05-31 05:54 51°25.898 2°53.894 13.1 250 11.1 101710 36
2012-05-31 05:55 51°26.092 2°53.853 9.6 249 11 101730 37
2012-05-31 05:56 51°26.289 2°53.817 9 251 11 101740 37
2012-05-31 05:57 51°26.487 2°53.772 8.1 20 11 101730 37
2012-05-31 05:58 51°26.684 2°53.711 10.3 248 11 101730 36
2012-05-31 05:59 51°26.88 2°53.646 10.4 248 10.9 101710 37
2012-05-31 06:00 51°27.074 2°53.586 11.7 19 10.9 101710 37
2012-05-31 06:01 51°27.269 2°53.527 9.8 20 10.9 101710 37
2012-05-31 06:02 51°27.465 2°53.473 12 250 10.8 101720 35
2012-05-31 06:03 51°27.66 2°53.421 10.7 247 10.8 101720 37
2012-05-31 06:04 51°27.853 2°53.373 8.2 251 10.8 101710 37
2012-05-31 06:05 51°28.046 2°53.325 8.3 249 10.7 101710 36
2012-05-31 06:06 51°28.238 2°53.27 9 254 10.7 101710 37
2012-05-31 06:07 51°28.429 2°53.213 7.6 24 10.7 101720 36
2012-05-31 06:08 51°28.62 2°53.154 9.7 251 10.7 101710 36
2012-05-31 06:09 51°28.812 2°53.09 8.5 21 10.7 101720 37
2012-05-31 06:10 51°29.008 2°53.037 9.9 252 10.7 101710 36
2012-05-31 06:11 51°29.207 2°52.989 8.9 249 10.7 101700 37
2012-05-31 06:12 51°29.404 2°52.934 8.2 251 10.7 101690 37
2012-05-31 06:13 51°29.602 2°52.876 7.1 246 10.7 101690 36
2012-05-31 06:14 51°29.801 2°52.818 10.7 20 10.7 101690 37
2012-05-31 06:15 51°29.996 2°52.761 10.3 251 10.7 101690 37
2012-05-31 06:16 51°30.185 2°52.702 13.4 251 10.6 101690 37
2012-05-31 06:17 51°30.381 2°52.646 8.6 249 10.7 101690 37
2012-05-31 06:18 51°30.574 2°52.596 10.1 250 10.6 101700 35
2012-05-31 06:19 51°30.763 2°52.535 10.1 249 10.6 101690 37
2012-05-31 06:20 51°30.953 2°52.476 8.5 250 10.7 101680 36
2012-05-31 06:21 51°31.144 2°52.421 10.7 248 10.7 101700 37
2012-05-31 06:22 51°31.336 2°52.365 11.9 249 10.7 101690 36
2012-05-31 06:23 51°31.528 2°52.312 8.9 245 10.6 101690 37
2012-05-31 06:24 51°31.722 2°52.252 4.8 21 10.6 101680 36
2012-05-31 06:25 51°31.917 2°52.197 8.8 245 10.6 101690 37
2012-05-31 06:26 51°32.109 2°52.132 9.7 248 10.6 101700 36
2012-05-31 06:27 51°32.301 2°52.063 5.1 21 10.6 101700 37
2012-05-31 06:28 51°32.497 2°51.994 9.9 250 10.6 101700 37
2012-05-31 06:29 51°32.694 2°51.934 9.4 248 10.5 101680 37
2012-05-31 06:30 51°32.893 2°51.873 9.9 253 10.5 101680 37
2012-05-31 06:31 51°33.079 2°51.988 2.5 30 10.5 101710 36
2012-05-31 06:32 51°33.216 2°52.233 -999 24 10.5 101720 37
2012-05-31 06:33 51°33.349 2°52.495 -999 23 10.5 101700 37
2012-05-31 06:34 51°33.473 2°52.761 -999 24 10.6 101710 36
2012-05-31 06:35 51°33.604 2°53.023 -999 23 10.5 101710 37
2012-05-31 06:36 51°33.729 2°53.292 -999 24 10.5 101700 37
2012-05-31 06:37 51°33.854 2°53.568 -999 24 10.5 101710 37
2012-05-31 06:38 51°33.987 2°53.829 -999 24 10.4 101710 37
2012-05-31 06:39 51°34.049 2°54.136 -999 29 10.5 101710 37
2012-05-31 06:40 51°33.985 2°54.447 -999 22 10.4 101710 37
2012-05-31 06:41 51°33.887 2°54.734 -999 15 10.4 101710 37
2012-05-31 06:42 51°33.783 2°55.016 -999 21 10.4 101710 36
2012-05-31 06:43 51°33.68 2°55.301 -999 17 10.4 101700 37
2012-05-31 06:44 51°33.563 2°55.572 -999 14 10.4 101690 37
2012-05-31 06:45 51°33.44 2°55.836 8.5 18 10.4 101690 37
2012-05-31 06:46 51°33.35 2°56.065 7.6 21 10.4 101700 37
2012-05-31 06:47 51°33.279 2°56.25 10.4 21 10.4 101700 37
2012-05-31 06:48 51°33.214 2°56.318 11.1 355 10.4 101700 37
2012-05-31 06:49 51°33.178 2°56.29 12.2 325 10.4 101710 37
2012-05-31 06:50 51°33.155 2°56.203 13 340 10.5 101700 35
2012-05-31 06:51 51°33.11 2°56.158 12.3 331 10.4 101690 37
2012-05-31 06:52 51°33.114 2°56.134 11.8 20 10.4 101690 37
2012-05-31 06:53 51°33.131 2°56.147 10.5 27 10.4 101690 37
2012-05-31 06:54 51°33.144 2°56.179 11 253 10.4 101690 37
2012-05-31 06:55 51°33.154 2°56.219 5.5 264 10.4 101700 37
2012-05-31 06:56 51°33.162 2°56.256 8 265 10.4 101700 37
2012-05-31 06:57 51°33.169 2°56.293 7.7 269 10.4 101700 37
2012-05-31 06:58 51°33.176 2°56.33 6.9 264 10.4 101700 36
2012-05-31 06:59 51°33.184 2°56.367 9.3 262 10.4 101720 37
2012-05-31 07:00 51°33.194 2°56.406 9.7 260 10.4 101720 38
2012-05-31 07:01 51°33.203 2°56.446 10.1 261 10.4 101710 37
2012-05-31 07:02 51°33.214 2°56.484 9.3 262 10.4 101720 38
2012-05-31 07:03 51°33.243 2°56.499 10.9 22 10.4 101710 37
2012-05-31 07:04 51°33.27 2°56.484 10.3 24 10.4 101700 37
2012-05-31 07:05 51°33.284 2°56.464 7.9 328 10.4 101710 38
2012-05-31 07:06 51°33.274 2°56.464 11.3 348 10.4 101710 37
2012-05-31 07:07 51°33.25 2°56.463 10.2 340 10.4 101710 38
2012-05-31 07:08 51°33.234 2°56.452 12.3 338 10.4 101710 38
2012-05-31 07:09 51°33.212 2°56.43 11.8 335 10.4 101710 39
2012-05-31 07:10 51°33.189 2°56.396 8.4 339 10.4 101720 38
2012-05-31 07:11 51°33.165 2°56.354 9.7 336 10.4 101720 38
2012-05-31 07:12 51°33.141 2°56.317 10.6 334 10.4 101710 39
2012-05-31 07:13 51°33.121 2°56.284 12.2 337 10.4 101720 39
2012-05-31 07:14 51°33.099 2°56.247 9.8 334 10.4 101720 37
2012-05-31 07:15 51°33.092 2°56.226 9.2 326 10.4 101710 39
2012-05-31 07:16 51°33.101 2°56.227 8.5 317 10.4 101710 39
2012-05-31 07:17 51°33.119 2°56.251 7.8 23 10.4 101720 38
2012-05-31 07:18 51°33.139 2°56.281 7.9 28 10.4 101720 39
2012-05-31 07:19 51°33.165 2°56.286 10 27 10.4 101730 39
2012-05-31 07:20 51°33.18 2°56.271 10.2 328 10.4 101720 39
2012-05-31 07:21 51°33.178 2°56.268 10.5 339 10.4 101720 39
2012-05-31 07:22 51°33.163 2°56.275 10.7 341 10.4 101710 37
2012-05-31 07:23 51°33.149 2°56.269 10.4 335 10.4 101720 38
2012-05-31 07:24 51°33.135 2°56.257 9.7 336 10.4 101720 39
2012-05-31 07:25 51°33.121 2°56.245 10.3 337 10.4 101720 39
2012-05-31 07:26 51°33.112 2°56.24 11.8 335 10.4 101720 39
2012-05-31 07:27 51°33.114 2°56.256 8.9 333 10.4 101720 39
2012-05-31 07:28 51°33.118 2°56.282 10.5 339 10.4 101720 39
2012-05-31 07:29 51°33.122 2°56.313 10.5 346 10.4 101710 39
2012-05-31 07:30 51°33.12 2°56.336 9.6 333 10.3 101710 38
2012-05-31 07:31 51°33.118 2°56.345 9.8 345 10.4 101710 39
2012-05-31 07:32 51°33.113 2°56.372 9.6 349 10.4 101700 39
2012-05-31 07:33 51°33.107 2°56.402 11.7 344 10.3 101710 40
2012-05-31 07:34 51°33.106 2°56.415 12.1 329 10.3 101710 39
2012-05-31 07:35 51°33.114 2°56.428 9 329 10.4 101710 39
2012-05-31 07:36 51°33.114 2°56.418 10.6 327 10.4 101690 40
2012-05-31 07:37 51°33.109 2°56.385 8.7 332 10.4 101700 39
2012-05-31 07:38 51°33.096 2°56.348 9.5 332 10.4 101690 38
2012-05-31 07:39 51°33.079 2°56.302 8 330 10.4 101710 40
2012-05-31 07:40 51°33.064 2°56.25 9.3 326 10.4 101700 39
2012-05-31 07:41 51°33.057 2°56.198 8.8 326 10.4 101710 40
2012-05-31 07:42 51°33.072 2°56.217 9.2 23 10.4 101700 39
2012-05-31 07:43 51°33.107 2°56.223 10.8 23 10.4 101700 39
2012-05-31 07:44 51°33.138 2°56.232 9.9 27 10.4 101700 39
2012-05-31 07:45 51°33.164 2°56.26 9.1 248 10.4 101690 39
2012-05-31 07:46 51°33.187 2°56.299 11.5 254 10.3 101700 39
2012-05-31 07:47 51°33.207 2°56.343 7.9 265 10.3 101700 39
2012-05-31 07:48 51°33.226 2°56.386 6.2 266 10.4 101700 40
2012-05-31 07:49 51°33.246 2°56.43 8.1 264 10.3 101700 40
2012-05-31 07:50 51°33.265 2°56.472 7.1 261 10.3 101700 40
2012-05-31 07:51 51°33.287 2°56.516 8.2 261 10.3 101700 40
2012-05-31 07:52 51°33.306 2°56.558 7.3 262 10.3 101700 39
2012-05-31 07:53 51°33.323 2°56.601 8.4 264 10.4 101700 40
2012-05-31 07:54 51°33.342 2°56.647 6.5 268 10.3 101690 39
2012-05-31 07:55 51°33.386 2°56.667 9.9 24 10.3 101690 40
2012-05-31 07:56 51°33.475 2°56.575 11 22 10.3 101660 39
2012-05-31 07:57 51°33.581 2°56.442 11.1 25 10.3 101680 40
2012-05-31 07:58 51°33.684 2°56.304 11.2 22 10.3 101660 39
2012-05-31 07:59 51°33.777 2°56.157 11.4 24 10.3 101680 40
2012-05-31 08:00 51°33.877 2°56.016 11.1 26 10.3 101660 39
2012-05-31 08:01 51°33.959 2°55.867 10.7 25 10.3 101660 39
2012-05-31 08:02 51°34.001 2°55.696 16.2 317 10.2 101660 39
2012-05-31 08:03 51°34.041 2°55.531 10.3 320 10.2 101660 39
2012-05-31 08:04 51°34.074 2°55.345 13 316 10.3 101690 39
2012-05-31 08:05 51°34.109 2°55.125 13.1 320 10.3 101680 39
2012-05-31 08:06 51°34.137 2°54.912 11.4 319 10.3 101660 40
2012-05-31 08:07 51°34.135 2°54.702 13.4 327 10.2 101680 40
2012-05-31 08:08 51°34.101 2°54.509 13.6 328 10.2 101680 40
2012-05-31 08:09 51°34.055 2°54.301 13 331 10.2 101680 39
2012-05-31 08:10 51°33.972 2°54.111 12.2 335 10.2 101680 40
2012-05-31 08:11 51°33.87 2°53.94 16 334 10.2 101670 40
2012-05-31 08:12 51°33.774 2°53.767 13.2 333 10.2 101670 40
2012-05-31 08:13 51°33.687 2°53.582 12.9 333 10.2 101670 40
2012-05-31 08:14 51°33.6 2°53.391 11.5 333 10.2 101680 40
2012-05-31 08:15 51°33.509 2°53.212 12.7 332 10.2 101670 40
2012-05-31 08:16 51°33.411 2°53.03 17.5 332 10.2 101670 40
2012-05-31 08:17 51°33.321 2°52.844 11.9 331 10.2 101660 40
2012-05-31 08:18 51°33.223 2°52.662 15.4 333 10.1 101670 40
2012-05-31 08:19 51°33.129 2°52.476 14.9 334 10.2 101670 40
2012-05-31 08:20 51°33.028 2°52.301 11.1 333 10.2 101670 40
2012-05-31 08:21 51°32.932 2°52.131 10.6 335 10.2 101670 40
2012-05-31 08:22 51°32.811 2°52.016 11.1 340 10.2 101660 39
2012-05-31 08:23 51°32.662 2°52.013 12.2 347 10.2 101650 39
2012-05-31 08:24 51°32.506 2°52.082 14 352 10.2 101650 39
2012-05-31 08:25 51°32.349 2°52.15 11.1 350 10.2 101650 40
2012-05-31 08:26 51°32.193 2°52.201 12.1 345 10.2 101640 39
2012-05-31 08:27 51°32.039 2°52.221 10.5 347 10.2 101650 40
2012-05-31 08:28 51°31.887 2°52.256 11.8 354 10.2 101650 39
2012-05-31 08:29 51°31.741 2°52.387 14.7 356 10.2 101650 40
2012-05-31 08:30 51°31.595 2°52.546 12.2 358 10.2 101640 40
2012-05-31 08:31 51°31.489 2°52.665 11.7 357 10.2 101660 40
2012-05-31 08:32 51°31.411 2°52.686 9.2 335 10.2 101670 40
2012-05-31 08:33 51°31.368 2°52.629 10 335 10.2 101660 39
2012-05-31 08:34 51°31.329 2°52.583 10.1 340 10.2 101670 40
2012-05-31 08:35 51°31.306 2°52.578 9.7 332 10.2 101680 40
2012-05-31 08:36 51°31.276 2°52.533 9.7 334 10.2 101670 39
2012-05-31 08:37 51°31.235 2°52.474 10.7 331 10.3 101670 40
2012-05-31 08:38 51°31.242 2°52.484 8.7 323 10.3 101670 39
2012-05-31 08:39 51°31.264 2°52.519 7.4 19 10.3 101670 40
2012-05-31 08:40 51°31.281 2°52.549 9.1 318 10.3 101660 41
2012-05-31 08:41 51°31.287 2°52.558 9.5 332 10.3 101670 39
2012-05-31 08:42 51°31.284 2°52.563 6.4 335 10.3 101650 40
2012-05-31 08:43 51°31.283 2°52.564 10.7 334 10.3 101670 40
2012-05-31 08:44 51°31.284 2°52.563 7.4 331 10.3 101670 39
2012-05-31 08:45 51°31.286 2°52.562 8 332 10.3 101660 40
2012-05-31 08:46 51°31.284 2°52.562 8.2 335 10.3 101660 41
2012-05-31 08:47 51°31.285 2°52.564 8 330 10.3 101660 40
2012-05-31 08:48 51°31.287 2°52.561 7.5 333 10.3 101660 41
2012-05-31 08:49 51°31.286 2°52.563 8.6 332 10.3 101660 40
2012-05-31 08:50 51°31.285 2°52.563 10 336 10.3 101650 40
2012-05-31 08:51 51°31.285 2°52.564 8.7 334 10.3 101670 40
2012-05-31 08:52 51°31.287 2°52.561 9.8 332 10.3 101670 41
2012-05-31 08:53 51°31.286 2°52.562 11 337 10.3 101660 41
2012-05-31 08:54 51°31.286 2°52.563 8 335 10.3 101670 40
2012-05-31 08:55 51°31.285 2°52.563 8 336 10.4 101670 40
2012-05-31 08:56 51°31.286 2°52.562 11.3 335 10.4 101680 40
2012-05-31 08:57 51°31.287 2°52.561 10.2 335 10.4 101680 41
2012-05-31 08:58 51°31.289 2°52.56 11.9 339 10.3 101680 40
2012-05-31 08:59 51°31.286 2°52.563 8.3 341 10.3 101670 41
2012-05-31 09:00 51°31.284 2°52.565 9.2 341 10.3 101670 40
2012-05-31 09:01 51°31.285 2°52.565 8.5 334 10.3 101670 41
2012-05-31 09:02 51°31.288 2°52.561 10.6 333 10.3 101670 40
2012-05-31 09:03 51°31.288 2°52.56 11.9 336 10.3 101670 40
2012-05-31 09:04 51°31.287 2°52.562 10.5 340 10.3 101670 40
2012-05-31 09:05 51°31.286 2°52.563 10.6 338 10.3 101670 40
2012-05-31 09:06 51°31.287 2°52.562 11.5 339 10.3 101680 40
2012-05-31 09:07 51°31.287 2°52.562 10.1 338 10.3 101660 40
2012-05-31 09:08 51°31.287 2°52.564 9.2 341 10.3 101670 41
2012-05-31 09:09 51°31.286 2°52.563 9.7 339 10.3 101670 40
2012-05-31 09:10 51°31.286 2°52.563 7.6 340 10.3 101670 41
2012-05-31 09:11 51°31.287 2°52.563 9.1 336 10.4 101650 40
2012-05-31 09:12 51°31.287 2°52.562 10.5 338 10.4 101670 40
2012-05-31 09:13 51°31.286 2°52.564 11 340 10.3 101650 40
2012-05-31 09:14 51°31.285 2°52.565 10.5 336 10.3 101670 41
2012-05-31 09:15 51°31.286 2°52.563 8.6 335 10.4 101680 41
2012-05-31 09:16 51°31.286 2°52.564 7.7 340 10.4 101670 40
2012-05-31 09:17 51°31.287 2°52.562 9.4 334 10.4 101680 40
2012-05-31 09:18 51°31.289 2°52.56 10.9 336 10.5 101670 40
2012-05-31 09:19 51°31.288 2°52.563 7.8 339 10.5 101660 40
2012-05-31 09:20 51°31.285 2°52.565 10 337 10.5 101680 41
2012-05-31 09:21 51°31.286 2°52.563 8.7 334 10.5 101670 40
2012-05-31 09:22 51°31.286 2°52.563 9 339 10.5 101690 41
2012-05-31 09:23 51°31.288 2°52.564 8.4 337 10.5 101680 40
2012-05-31 09:24 51°31.287 2°52.562 8 337 10.6 101670 40
2012-05-31 09:25 51°31.287 2°52.563 8.8 340 10.6 101660 40
2012-05-31 09:26 51°31.287 2°52.563 7.2 339 10.6 101670 40
2012-05-31 09:27 51°31.287 2°52.565 9.4 339 10.6 101680 41
2012-05-31 09:28 51°31.286 2°52.564 11.1 341 10.6 101680 40
2012-05-31 09:29 51°31.287 2°52.566 8.4 337 10.6 101680 40
2012-05-31 09:30 51°31.286 2°52.564 8 342 10.7 101680 40
2012-05-31 09:31 51°31.287 2°52.564 8.2 342 10.7 101690 41
2012-05-31 09:32 51°31.285 2°52.565 10.2 344 10.7 101690 40
2012-05-31 09:33 51°31.286 2°52.566 7.8 336 10.7 101690 40
2012-05-31 09:34 51°31.287 2°52.563 9.3 342 10.7 101690 41
2012-05-31 09:35 51°31.288 2°52.562 8.3 340 10.7 101690 41
2012-05-31 09:36 51°31.287 2°52.563 10.5 342 10.7 101690 40
2012-05-31 09:37 51°31.287 2°52.566 9.8 343 10.7 101690 40
2012-05-31 09:38 51°31.286 2°52.566 12.2 341 10.7 101690 41
2012-05-31 09:39 51°31.285 2°52.566 10.3 340 10.7 101690 40
2012-05-31 09:40 51°31.285 2°52.566 8.2 339 10.7 101700 41
2012-05-31 09:41 51°31.287 2°52.566 8.6 342 10.7 101680 40
2012-05-31 09:42 51°31.287 2°52.566 8.4 343 10.8 101700 40
2012-05-31 09:43 51°31.285 2°52.566 11.3 343 10.7 101700 41
2012-05-31 09:44 51°31.284 2°52.567 8.3 342 10.7 101690 40
2012-05-31 09:45 51°31.285 2°52.568 8 337 10.8 101710 41
2012-05-31 09:46 51°31.287 2°52.566 9.9 341 10.8 101710 41
2012-05-31 09:47 51°31.287 2°52.564 11.1 340 10.8 101700 40
2012-05-31 09:48 51°31.287 2°52.565 9.8 343 10.8 101690 41
2012-05-31 09:49 51°31.287 2°52.564 9 343 10.8 101710 40
2012-05-31 09:50 51°31.289 2°52.563 13.1 341 10.8 101700 40
2012-05-31 09:51 51°31.289 2°52.562 7.3 346 10.8 101700 41
2012-05-31 09:52 51°31.288 2°52.564 8.8 347 10.8 101710 40
2012-05-31 09:53 51°31.287 2°52.564 7.7 345 10.8 101710 40
2012-05-31 09:54 51°31.288 2°52.566 9.2 347 10.7 101710 40
2012-05-31 09:55 51°31.285 2°52.563 10.6 347 10.7 101700 39
2012-05-31 09:56 51°31.285 2°52.567 13.1 345 10.7 101710 39
2012-05-31 09:57 51°31.285 2°52.566 9.9 342 10.8 101720 40
2012-05-31 09:58 51°31.287 2°52.563 8.1 340 10.8 101710 41
2012-05-31 09:59 51°31.29 2°52.561 11 343 10.8 101710 40
2012-05-31 10:00 51°31.289 2°52.561 9.5 348 10.8 101710 41
2012-05-31 10:01 51°31.288 2°52.564 8.2 346 10.8 101710 40
2012-05-31 10:02 51°31.287 2°52.566 8.9 345 10.7 101710 40
2012-05-31 10:03 51°31.287 2°52.562 8.8 340 10.8 101700 41
2012-05-31 10:04 51°31.29 2°52.561 9.8 341 10.8 101710 39
2012-05-31 10:05 51°31.291 2°52.559 9.3 345 10.8 101710 41
2012-05-31 10:06 51°31.291 2°52.56 11.6 343 10.8 101720 41
2012-05-31 10:07 51°31.29 2°52.553 7.7 341 10.8 101710 41
2012-05-31 10:08 51°31.286 2°52.544 11.1 341 10.8 101710 40
2012-05-31 10:09 51°31.281 2°52.535 8.1 342 10.8 101710 40
2012-05-31 10:10 51°31.275 2°52.527 9.2 342 10.9 101710 39
2012-05-31 10:11 51°31.271 2°52.521 8.8 343 10.9 101720 40
2012-05-31 10:12 51°31.273 2°52.52 6.7 339 10.9 101710 39
2012-05-31 10:13 51°31.284 2°52.532 7.7 344 10.9 101720 41
2012-05-31 10:14 51°31.3 2°52.562 11.9 354 10.8 101730 40
2012-05-31 10:15 51°31.295 2°52.57 10.9 340 10.8 101730 40
2012-05-31 10:16 51°31.32 2°52.502 10.2 21 10.9 101710 40
2012-05-31 10:17 51°31.426 2°52.381 12.5 24 10.9 101700 40
2012-05-31 10:18 51°31.615 2°52.27 11.4 27 11 101700 40
2012-05-31 10:19 51°31.825 2°52.22 8.5 23 11 101720 40
2012-05-31 10:20 51°32.036 2°52.178 10.8 24 11 101720 40
2012-05-31 10:21 51°32.249 2°52.139 10.9 246 11.1 101710 41
2012-05-31 10:22 51°32.46 2°52.167 7 252 11.1 101730 40
2012-05-31 10:23 51°32.675 2°52.222 7.1 20 11.1 101730 40
2012-05-31 10:24 51°32.884 2°52.304 5.7 262 11.1 101740 40
2012-05-31 10:25 51°33.06 2°52.512 1.6 266 11.1 101750 39
2012-05-31 10:26 51°33.217 2°52.763 -999 26 11.1 101750 40
2012-05-31 10:27 51°33.362 2°53.038 -999 25 11.1 101750 40
2012-05-31 10:28 51°33.504 2°53.3 -999 25 11.1 101750 40
2012-05-31 10:29 51°33.653 2°53.568 -999 25 11.1 101750 40
2012-05-31 10:30 51°33.782 2°53.846 -999 25 11 101760 40
2012-05-31 10:31 51°33.896 2°54.153 -999 25 11.1 101760 40
2012-05-31 10:32 51°33.933 2°54.479 -999 25 11.2 101760 40
2012-05-31 10:33 51°33.847 2°54.77 9 14 11.1 101740 41
2012-05-31 10:34 51°33.734 2°55.024 9.5 12 11 101750 41
2012-05-31 10:35 51°33.62 2°55.287 7.1 11 11 101750 40
2012-05-31 10:36 51°33.504 2°55.529 6.7 11 11 101760 41
2012-05-31 10:37 51°33.404 2°55.701 6.9 9 11 101740 39
2012-05-31 10:38 51°33.325 2°55.831 8.7 18 11 101750 39
2012-05-31 10:39 51°33.289 2°55.921 7.9 20 11 101760 40
2012-05-31 10:40 51°33.272 2°55.979 8.9 15 11 101750 39
2012-05-31 10:41 51°33.269 2°56.019 9.1 16 11 101730 40
2012-05-31 10:42 51°33.273 2°56.054 9 15 11 101730 40
2012-05-31 10:43 51°33.285 2°56.086 8.2 12 11 101720 40
2012-05-31 10:44 51°33.3 2°56.119 10.5 11 11 101730 39
2012-05-31 10:45 51°33.319 2°56.151 8.8 18 11 101730 39
2012-05-31 10:46 51°33.34 2°56.183 7 23 11 101730 40
2012-05-31 10:47 51°33.362 2°56.212 7.4 26 11.1 101740 40
2012-05-31 10:48 51°33.385 2°56.242 7.8 28 11.1 101740 40
2012-05-31 10:49 51°33.408 2°56.272 9.1 26 11.1 101730 40
2012-05-31 10:50 51°33.4 2°56.315 8.2 4 11.1 101730 40
2012-05-31 10:51 51°33.35 2°56.312 11.8 353 11.1 101710 39
2012-05-31 10:52 51°33.288 2°56.279 12.2 346 11.1 101710 39
2012-05-31 10:53 51°33.231 2°56.217 11.5 344 11.1 101720 40
2012-05-31 10:54 51°33.2 2°56.187 9.6 346 11.1 101720 40
2012-05-31 10:55 51°33.183 2°56.175 12.9 347 11.1 101730 40
2012-05-31 10:56 51°33.18 2°56.182 9.4 348 11.1 101750 40
2012-05-31 10:57 51°33.187 2°56.196 8.5 349 11.1 101750 40
2012-05-31 10:58 51°33.194 2°56.218 9.5 351 11.1 101740 40
2012-05-31 10:59 51°33.193 2°56.231 7.2 344 11.1 101750 40
2012-05-31 11:00 51°33.185 2°56.224 7.8 342 11.1 101750 40
2012-05-31 11:01 51°33.175 2°56.202 8.6 341 11.1 101750 40
2012-05-31 11:02 51°33.163 2°56.183 7.8 342 11.1 101750 40
2012-05-31 11:03 51°33.158 2°56.174 7.6 342 11.2 101750 40
2012-05-31 11:04 51°33.154 2°56.174 7.1 344 11.2 101750 39
2012-05-31 11:05 51°33.16 2°56.19 8.1 352 11.2 101750 41
2012-05-31 11:06 51°33.174 2°56.217 7.7 8 11.2 101750 39
2012-05-31 11:07 51°33.191 2°56.244 8 19 11.2 101740 40
2012-05-31 11:08 51°33.209 2°56.271 7.6 23 11.2 101740 40
2012-05-31 11:09 51°33.227 2°56.299 7.1 27 11.2 101750 40
2012-05-31 11:10 51°33.245 2°56.327 8.1 29 11.2 101740 40
2012-05-31 11:11 51°33.261 2°56.355 8.3 20 11.2 101730 40
2012-05-31 11:12 51°33.259 2°56.381 7.3 360 11.3 101750 40
2012-05-31 11:13 51°33.238 2°56.371 10.6 345 11.3 101750 39
2012-05-31 11:14 51°33.206 2°56.32 9.3 340 11.3 101760 39
2012-05-31 11:15 51°33.17 2°56.25 9.7 342 11.3 101750 40
2012-05-31 11:16 51°33.135 2°56.189 8.4 342 11.3 101760 40
2012-05-31 11:17 51°33.123 2°56.157 10.5 341 11.4 101760 41
2012-05-31 11:18 51°33.125 2°56.157 8.8 348 11.4 101760 40
2012-05-31 11:19 51°33.138 2°56.182 6.4 -999 11.4 101750 39
2012-05-31 11:20 51°33.156 2°56.207 9.7 14 11.4 101750 39
2012-05-31 11:21 51°33.174 2°56.229 8.3 26 11.4 101750 39
2012-05-31 11:22 51°33.192 2°56.253 7.8 33 11.4 101740 40
2012-05-31 11:23 51°33.209 2°56.278 9.8 29 11.4 101740 40
2012-05-31 11:24 51°33.224 2°56.304 7 28 11.4 101750 40
2012-05-31 11:25 51°33.239 2°56.327 9 23 11.4 101750 39
2012-05-31 11:26 51°33.254 2°56.351 8.4 23 11.4 101750 40
2012-05-31 11:27 51°33.269 2°56.376 8.1 22 11.4 101760 40
2012-05-31 11:28 51°33.284 2°56.4 9.4 20 11.4 101740 40
2012-05-31 11:29 51°33.268 2°56.434 8.7 3 11.4 101750 40
2012-05-31 11:30 51°33.225 2°56.412 13.6 340 11.4 101750 40
2012-05-31 11:31 51°33.183 2°56.329 10.7 338 11.4 101760 40
2012-05-31 11:32 51°33.141 2°56.244 9.4 338 11.5 101750 39
2012-05-31 11:33 51°33.111 2°56.183 10.4 342 11.5 101750 39
2012-05-31 11:34 51°33.099 2°56.167 7 352 11.5 101750 40
2012-05-31 11:35 51°33.102 2°56.18 8.6 2 11.5 101750 40
2012-05-31 11:36 51°33.113 2°56.203 7.6 16 11.5 101750 40
2012-05-31 11:37 51°33.125 2°56.225 8.8 21 11.5 101740 40
2012-05-31 11:38 51°33.139 2°56.247 6.9 26 11.5 101740 39
2012-05-31 11:39 51°33.154 2°56.267 8.8 27 11.5 101740 40
2012-05-31 11:40 51°33.169 2°56.288 7.1 24 11.5 101740 39
2012-05-31 11:41 51°33.185 2°56.307 9.1 24 11.5 101750 40
2012-05-31 11:42 51°33.201 2°56.326 7.9 27 11.5 101740 40
2012-05-31 11:43 51°33.217 2°56.344 6.9 27 11.5 101740 40
2012-05-31 11:44 51°33.191 2°56.359 8.4 351 11.5 101750 40
2012-05-31 11:45 51°33.14 2°56.311 8.7 352 11.5 101750 40
2012-05-31 11:46 51°33.105 2°56.313 8.8 5 11.5 101730 39
2012-05-31 11:47 51°33.08 2°56.338 6.7 13 11.5 101740 40
2012-05-31 11:48 51°33.07 2°56.361 6.7 10 11.5 101750 39
2012-05-31 11:49 51°33.068 2°56.383 6.9 14 11.5 101740 39
2012-05-31 11:50 51°33.072 2°56.403 7 10 11.5 101750 40
2012-05-31 11:51 51°33.079 2°56.424 7.1 14 11.6 101750 40
2012-05-31 11:52 51°33.089 2°56.444 7.3 21 11.6 101740 40
2012-05-31 11:53 51°33.102 2°56.465 7.5 23 11.6 101740 40
2012-05-31 11:54 51°33.117 2°56.487 7.5 28 11.6 101750 39
2012-05-31 11:55 51°33.132 2°56.507 5.9 29 11.6 101750 40
2012-05-31 11:56 51°33.145 2°56.528 7.5 30 11.6 101750 40
2012-05-31 11:57 51°33.159 2°56.549 7.3 28 11.7 101760 40
2012-05-31 11:58 51°33.173 2°56.571 7.2 26 11.7 101750 39
2012-05-31 11:59 51°33.185 2°56.592 6.5 26 11.7 101740 41
2012-05-31 12:00 51°33.198 2°56.616 6.6 29 11.7 101730 41
2012-05-31 12:01 51°33.212 2°56.638 7.1 22 11.7 101740 39
2012-05-31 12:02 51°33.225 2°56.658 6.7 20 11.7 101730 41
2012-05-31 12:03 51°33.237 2°56.678 7.4 19 11.7 101740 40
2012-05-31 12:04 51°33.246 2°56.7 6.6 8 11.7 101740 40
2012-05-31 12:05 51°33.216 2°56.687 8.6 339 11.7 101730 40
2012-05-31 12:06 51°33.185 2°56.585 10.7 334 11.8 101730 41
2012-05-31 12:07 51°33.154 2°56.457 11.5 335 11.8 101730 41
2012-05-31 12:08 51°33.133 2°56.357 9.2 333 11.8 101730 40
2012-05-31 12:09 51°33.121 2°56.291 8.1 333 11.9 101730 40
2012-05-31 12:10 51°33.117 2°56.254 9.1 333 11.9 101740 41
2012-05-31 12:11 51°33.118 2°56.241 8.6 339 11.9 101740 41
2012-05-31 12:12 51°33.123 2°56.244 9.5 344 11.9 101730 41
2012-05-31 12:13 51°33.131 2°56.26 8.4 -999 11.9 101730 39
2012-05-31 12:14 51°33.144 2°56.28 7.8 10 11.9 101730 40
2012-05-31 12:15 51°33.158 2°56.297 7.2 21 11.9 101730 40
2012-05-31 12:16 51°33.168 2°56.319 6.9 21 11.8 101730 39
2012-05-31 12:17 51°33.138 2°56.328 8.3 350 11.8 101720 41
2012-05-31 12:18 51°33.113 2°56.257 7.9 332 11.9 101730 40
2012-05-31 12:19 51°33.111 2°56.161 10.6 316 11.9 101720 40
2012-05-31 12:20 51°33.142 2°56.114 7.1 250 11.9 101740 39
2012-05-31 12:21 51°33.18 2°56.096 6.9 19 12 101730 41
2012-05-31 12:22 51°33.212 2°56.084 8.2 22 12 101730 40
2012-05-31 12:23 51°33.239 2°56.076 7.7 21 12.1 101740 40
2012-05-31 12:24 51°33.264 2°56.073 8.9 247 12.1 101730 41
2012-05-31 12:25 51°33.287 2°56.073 6.5 247 12.2 101730 40
2012-05-31 12:26 51°33.308 2°56.075 7.4 252 12.2 101730 41
2012-05-31 12:27 51°33.329 2°56.081 7.1 250 12.3 101730 41
2012-05-31 12:28 51°33.348 2°56.087 9.4 253 12.3 101730 41
2012-05-31 12:29 51°33.373 2°56.081 9.3 21 12.3 101730 41
2012-05-31 12:30 51°33.381 2°56.016 12 341 12.3 101710 41
2012-05-31 12:31 51°33.331 2°55.976 9.9 350 12.2 101690 40
2012-05-31 12:32 51°33.258 2°55.947 8.7 1 12.1 101700 40
2012-05-31 12:33 51°33.211 2°55.971 8.8 16 12.1 101690 41
2012-05-31 12:34 51°33.188 2°55.999 8.6 18 12.1 101710 41
2012-05-31 12:35 51°33.177 2°56.019 10 10 12.1 101710 41
2012-05-31 12:36 51°33.174 2°56.034 7.1 13 12.1 101710 40
2012-05-31 12:37 51°33.176 2°56.049 7.6 7 12 101720 40
2012-05-31 12:38 51°33.181 2°56.065 8.5 11 12 101700 40
2012-05-31 12:39 51°33.188 2°56.081 7.9 16 12 101700 40
2012-05-31 12:40 51°33.195 2°56.098 8.2 19 12 101700 40
2012-05-31 12:41 51°33.202 2°56.115 8.9 20 12 101700 40
2012-05-31 12:42 51°33.211 2°56.13 6.8 17 12.1 101700 41
2012-05-31 12:43 51°33.221 2°56.145 8.6 24 12.1 101700 40
2012-05-31 12:44 51°33.232 2°56.16 8.6 24 12 101700 40
2012-05-31 12:45 51°33.242 2°56.174 6.9 23 12.1 101710 41
2012-05-31 12:46 51°33.253 2°56.188 8 22 12.1 101700 41
2012-05-31 12:47 51°33.263 2°56.202 6.4 21 12.1 101690 40
2012-05-31 12:48 51°33.273 2°56.217 7.3 19 12.1 101690 40
2012-05-31 12:49 51°33.283 2°56.232 7.6 23 12.1 101690 40
2012-05-31 12:50 51°33.292 2°56.246 6.8 17 12.1 101680 40
2012-05-31 12:51 51°33.3 2°56.259 7.7 20 12.1 101690 40
2012-05-31 12:52 51°33.308 2°56.273 8.3 24 12.1 101680 41
2012-05-31 12:53 51°33.318 2°56.286 7.6 23 12.1 101680 41
2012-05-31 12:54 51°33.321 2°56.301 8.4 10 12.1 101670 40
2012-05-31 12:55 51°33.284 2°56.303 8.5 349 12.1 101670 40
2012-05-31 12:56 51°33.237 2°56.255 8.3 344 12.1 101670 41
2012-05-31 12:57 51°33.196 2°56.215 7.4 346 12 101670 40
2012-05-31 12:58 51°33.169 2°56.189 10.4 345 12 101670 40
2012-05-31 12:59 51°33.15 2°56.172 9.9 347 12 101670 40
2012-05-31 13:00 51°33.14 2°56.167 8.9 351 12 101670 41
2012-05-31 13:01 51°33.136 2°56.173 6.8 356 11.9 101670 40
2012-05-31 13:02 51°33.138 2°56.187 8.3 11 11.9 101660 40
2012-05-31 13:03 51°33.144 2°56.2 8.9 19 12 101680 41
2012-05-31 13:04 51°33.152 2°56.214 8.3 23 12 101670 41
2012-05-31 13:05 51°33.16 2°56.227 8 23 12 101670 40
2012-05-31 13:06 51°33.168 2°56.241 7.5 25 12 101680 41
2012-05-31 13:07 51°33.177 2°56.252 7.9 28 12 101670 40
2012-05-31 13:08 51°33.186 2°56.265 9.3 20 12 101670 40
2012-05-31 13:09 51°33.194 2°56.278 7.7 22 12 101670 41
2012-05-31 13:10 51°33.201 2°56.291 8.4 18 12 101670 40
2012-05-31 13:11 51°33.208 2°56.304 9.1 18 12 101670 39
2012-05-31 13:12 51°33.215 2°56.317 8.1 22 12 101670 40
2012-05-31 13:13 51°33.22 2°56.328 9.5 21 12 101670 40
2012-05-31 13:14 51°33.227 2°56.342 10.8 19 12 101660 40
2012-05-31 13:15 51°33.234 2°56.356 8.3 23 12 101660 40
2012-05-31 13:16 51°33.24 2°56.369 8.4 22 12 101650 40
2012-05-31 13:17 51°33.247 2°56.383 9 25 12 101660 40
2012-05-31 13:18 51°33.253 2°56.396 9.7 19 12 101660 40
2012-05-31 13:19 51°33.239 2°56.413 9.1 2 12 101650 41
2012-05-31 13:20 51°33.213 2°56.405 10.2 345 12 101640 40
2012-05-31 13:21 51°33.189 2°56.371 10.6 337 12 101650 40
2012-05-31 13:22 51°33.162 2°56.317 10.3 340 12 101650 41
2012-05-31 13:23 51°33.135 2°56.273 9.6 341 12.1 101650 40
2012-05-31 13:24 51°33.115 2°56.24 9.6 341 12.1 101650 41
2012-05-31 13:25 51°33.102 2°56.227 7.7 344 12.1 101660 40
2012-05-31 13:26 51°33.088 2°56.213 7.1 336 12.1 101660 40
2012-05-31 13:27 51°33.075 2°56.168 11.2 326 12.1 101670 40
2012-05-31 13:28 51°33.08 2°56.151 8.9 26 12.1 101660 40
2012-05-31 13:29 51°33.085 2°56.163 9.3 254 12.1 101680 41
2012-05-31 13:30 51°33.089 2°56.176 12.2 260 12.2 101690 40
2012-05-31 13:31 51°33.091 2°56.189 7.5 265 12.1 101670 41
2012-05-31 13:32 51°33.092 2°56.202 5.3 268 12.1 101680 41
2012-05-31 13:33 51°33.094 2°56.214 8.9 270 12.1 101690 41
2012-05-31 13:34 51°33.096 2°56.228 4.6 269 12.1 101680 41
2012-05-31 13:35 51°33.099 2°56.24 8.4 264 12.1 101660 39
2012-05-31 13:36 51°33.102 2°56.252 6.4 266 12.1 101660 40
2012-05-31 13:37 51°33.106 2°56.264 9 262 12.1 101670 40
2012-05-31 13:38 51°33.11 2°56.276 8.8 263 12.1 101670 40
2012-05-31 13:39 51°33.114 2°56.288 8.8 264 12.1 101670 40
2012-05-31 13:40 51°33.127 2°56.291 9.7 20 12.1 101670 40
2012-05-31 13:41 51°33.144 2°56.233 13.3 322 12.1 101650 40
2012-05-31 13:42 51°33.112 2°56.179 12.2 2 12.1 101640 40
2012-05-31 13:43 51°33.082 2°56.208 8.8 28 12.1 101640 40
2012-05-31 13:44 51°33.058 2°56.25 11.3 20 12.1 101640 40
2012-05-31 13:45 51°33.033 2°56.29 9.4 28 12.1 101640 40
2012-05-31 13:46 51°33.055 2°56.376 7.4 269 12.1 101660 41
2012-05-31 13:47 51°33.124 2°56.361 4.4 255 12.1 101640 41
2012-05-31 13:48 51°33.173 2°56.332 9.6 261 12.1 101630 40
2012-05-31 13:49 51°33.208 2°56.311 9.9 251 12.1 101640 40
2012-05-31 13:50 51°33.235 2°56.292 9.1 255 12.2 101630 40
2012-05-31 13:51 51°33.253 2°56.28 9.8 261 12.2 101640 41
2012-05-31 13:52 51°33.265 2°56.278 10.5 258 12.2 101640 41
2012-05-31 13:53 51°33.273 2°56.28 10 256 12.2 101630 40
2012-05-31 13:54 51°33.28 2°56.283 10.6 257 12.2 101620 41
2012-05-31 13:55 51°33.286 2°56.286 9.7 259 12.2 101630 40
2012-05-31 13:56 51°33.292 2°56.292 10.9 259 12.2 101620 40
2012-05-31 13:57 51°33.297 2°56.299 11.1 258 12.2 101630 40
2012-05-31 13:58 51°33.302 2°56.309 8.1 265 12.2 101630 40
2012-05-31 13:59 51°33.306 2°56.316 7.3 263 12.1 101630 41
2012-05-31 14:00 51°33.308 2°56.324 7.9 261 12.1 101650 40
2012-05-31 14:01 51°33.346 2°56.296 10.5 248 12.1 101670 41
2012-05-31 14:02 51°33.454 2°56.165 9.9 24 12.2 101640 40
2012-05-31 14:03 51°33.59 2°55.966 11.9 24 12.2 101650 41
2012-05-31 14:04 51°33.721 2°55.73 10.5 26 12.2 101640 40
2012-05-31 14:05 51°33.834 2°55.468 6 25 12.1 101630 40
2012-05-31 14:06 51°33.935 2°55.188 15.1 28 12.1 101630 40
2012-05-31 14:07 51°33.971 2°54.873 16.6 318 12.1 101630 40
2012-05-31 14:08 51°33.954 2°54.552 7.6 324 12.1 101630 40
2012-05-31 14:09 51°33.907 2°54.232 12.4 330 12.1 101630 40
2012-05-31 14:10 51°33.81 2°53.944 15.6 331 12.1 101620 40
2012-05-31 14:11 51°33.69 2°53.677 12.2 333 12.1 101620 40
2012-05-31 14:12 51°33.561 2°53.423 18 335 12.1 101620 40
2012-05-31 14:13 51°33.435 2°53.164 18 334 12.1 101630 40
2012-05-31 14:14 51°33.317 2°52.893 15 333 12.1 101630 40
2012-05-31 14:15 51°33.194 2°52.63 15.7 334 12.1 101620 41
2012-05-31 14:16 51°33.052 2°52.392 13.5 335 12.1 101620 40
2012-05-31 14:17 51°32.883 2°52.214 12.9 348 12.1 101620 40
2012-05-31 14:18 51°32.685 2°52.183 6.7 355 12 101590 40
2012-05-31 14:19 51°32.485 2°52.206 12.7 355 12 101600 40
2012-05-31 14:20 51°32.282 2°52.222 7.6 355 12 101600 40
2012-05-31 14:21 51°32.077 2°52.224 16 352 11.9 101600 40
2012-05-31 14:22 51°31.872 2°52.207 18.4 351 11.9 101610 40
2012-05-31 14:23 51°31.665 2°52.192 7.6 353 11.9 101600 40
2012-05-31 14:24 51°31.459 2°52.181 10.9 351 11.9 101590 40
2012-05-31 14:25 51°31.256 2°52.191 18.8 352 11.9 101590 40
2012-05-31 14:26 51°31.054 2°52.182 13.2 352 11.9 101600 40
2012-05-31 14:27 51°30.851 2°52.183 15.6 353 11.9 101600 40
2012-05-31 14:28 51°30.649 2°52.191 16.8 353 11.9 101590 40
2012-05-31 14:29 51°30.446 2°52.191 17.5 352 11.9 101600 39
2012-05-31 14:30 51°30.245 2°52.183 18.8 354 11.9 101600 40
2012-05-31 14:31 51°30.045 2°52.17 18.1 353 11.9 101610 40
2012-05-31 14:32 51°29.847 2°52.17 16.9 353 11.9 101600 40
2012-05-31 14:33 51°29.648 2°52.173 7.6 354 11.9 101600 40
2012-05-31 14:34 51°29.446 2°52.157 8.4 354 11.9 101600 40
2012-05-31 14:35 51°29.246 2°52.146 14.8 351 12 101600 40
2012-05-31 14:36 51°29.045 2°52.13 7.5 353 12 101610 39
2012-05-31 14:37 51°28.842 2°52.116 21.1 355 12 101610 40
2012-05-31 14:38 51°28.638 2°52.104 15.1 347 12 101610 40
2012-05-31 14:39 51°28.434 2°52.08 15.7 351 12 101610 40
2012-05-31 14:40 51°28.23 2°52.065 6.9 352 12 101610 40
2012-05-31 14:41 51°28.024 2°52.058 7.2 355 12 101600 40
2012-05-31 14:42 51°27.817 2°52.056 10.2 352 12 101620 40
2012-05-31 14:43 51°27.612 2°52.032 12.6 352 12 101610 40
2012-05-31 14:44 51°27.405 2°52.016 10.4 353 12 101610 40
2012-05-31 14:45 51°27.2 2°52.009 10.5 354 12 101620 40
2012-05-31 14:46 51°26.992 2°52 7.6 352 12.1 101610 40
2012-05-31 14:47 51°26.786 2°51.984 11.5 351 12.1 101610 40
2012-05-31 14:48 51°26.583 2°51.975 6.7 350 12.1 101600 40
2012-05-31 14:49 51°26.382 2°51.957 16.5 353 12.1 101620 40
2012-05-31 14:50 51°26.176 2°51.928 13.1 351 12.1 101610 40
2012-05-31 14:51 51°25.971 2°51.908 6.7 354 12.1 101610 40
2012-05-31 14:52 51°25.767 2°51.899 15.9 352 12.2 101600 40
2012-05-31 14:53 51°25.563 2°51.879 12.5 354 12.2 101610 40
2012-05-31 14:54 51°25.359 2°51.861 18.1 351 12.2 101610 40
2012-05-31 14:55 51°25.153 2°51.836 15.7 353 12.3 101600 40
2012-05-31 14:56 51°24.948 2°51.813 7.2 354 12.3 101600 40
2012-05-31 14:57 51°24.741 2°51.79 11 353 12.3 101610 40
2012-05-31 14:58 51°24.535 2°51.762 13.4 354 12.3 101610 40
2012-05-31 14:59 51°24.33 2°51.741 13.1 353 12.3 101620 40
2012-05-31 15:00 51°24.122 2°51.721 12.8 356 12.4 101620 40
2012-05-31 15:01 51°23.917 2°51.703 11.3 353 12.4 101580 40
2012-05-31 15:02 51°23.711 2°51.671 17.5 353 12.4 101580 40
2012-05-31 15:03 51°23.504 2°51.653 18.2 354 12.5 101570 40
2012-05-31 15:04 51°23.297 2°51.632 16 354 12.5 101590 40
2012-05-31 15:05 51°23.088 2°51.603 6.8 354 12.5 101580 40
2012-05-31 15:06 51°22.88 2°51.576 10.3 355 12.5 101570 40
2012-05-31 15:07 51°22.674 2°51.553 17.3 353 12.5 101570 40
2012-05-31 15:08 51°22.469 2°51.534 15.9 352 12.6 101570 40
2012-05-31 15:09 51°22.264 2°51.513 15.8 354 12.6 101570 40
2012-05-31 15:10 51°22.059 2°51.483 19.4 350 12.6 101580 40
2012-05-31 15:11 51°21.854 2°51.46 16.3 356 12.7 101560 40
2012-05-31 15:12 51°21.651 2°51.46 10.7 356 12.7 101570 40
2012-05-31 15:13 51°21.446 2°51.471 7.3 358 12.7 101570 40
2012-05-31 15:14 51°21.24 2°51.486 17.4 357 12.8 101580 40
2012-05-31 15:15 51°21.035 2°51.493 14.1 356 12.8 101570 41
2012-05-31 15:16 51°20.829 2°51.495 13.9 356 12.9 101580 40
2012-05-31 15:17 51°20.627 2°51.518 12.1 1 12.9 101580 40
2012-05-31 15:18 51°20.424 2°51.557 15.9 359 12.9 101580 40
2012-05-31 15:19 51°20.221 2°51.596 7.4 1 13 101570 40
2012-05-31 15:20 51°20.016 2°51.627 17.2 2 13.1 101580 41
2012-05-31 15:21 51°19.812 2°51.656 14.2 360 13.2 101570 41
2012-05-31 15:22 51°19.605 2°51.676 6.6 358 13.2 101560 40
2012-05-31 15:23 51°19.399 2°51.708 10.4 357 13.3 101570 40
2012-05-31 15:24 51°19.193 2°51.741 6.8 360 13.4 101580 40
2012-05-31 15:25 51°18.984 2°51.761 12.9 1 13.4 101580 41
2012-05-31 15:26 51°18.779 2°51.797 10.4 358 13.5 101580 40
2012-05-31 15:27 51°18.573 2°51.84 11 359 13.5 101590 40
2012-05-31 15:28 51°18.369 2°51.887 12.4 358 13.5 101590 40
2012-05-31 15:29 51°18.163 2°51.932 12.6 358 13.6 101580 41
2012-05-31 15:30 51°17.957 2°51.974 10.7 -999 13.6 101590 41
2012-05-31 15:31 51°17.749 2°52.009 17.2 358 13.6 101600 40
2012-05-31 15:32 51°17.543 2°52.064 9.1 1 13.7 101600 40
2012-05-31 15:33 51°17.34 2°52.144 9.6 1 13.7 101590 41
2012-05-31 15:34 51°17.139 2°52.239 10.3 3 13.7 101600 40
2012-05-31 15:35 51°16.95 2°52.365 7.6 7 13.8 101590 40
2012-05-31 15:36 51°16.767 2°52.514 8.4 3 13.8 101600 41
2012-05-31 15:37 51°16.587 2°52.671 9.5 11 13.8 101600 40
2012-05-31 15:38 51°16.41 2°52.83 7 5 13.8 101600 40
2012-05-31 15:39 51°16.233 2°52.987 7.3 6 13.9 101600 40
2012-05-31 15:40 51°16.06 2°53.152 10.2 9 13.9 101600 40
2012-05-31 15:41 51°15.891 2°53.325 9.1 10 13.9 101600 41
2012-05-31 15:42 51°15.724 2°53.508 10.5 9 14 101610 41
2012-05-31 15:43 51°15.567 2°53.697 9.3 13 14.1 101610 41
2012-05-31 15:44 51°15.401 2°53.894 7.8 8 14.1 101610 40
2012-05-31 15:45 51°15.245 2°54.081 8.3 13 14.1 101610 41
2012-05-31 15:46 51°15.091 2°54.27 8.3 14 14.2 101620 41
2012-05-31 15:47 51°14.938 2°54.454 7.9 9 14.3 101610 40
2012-05-31 15:48 51°14.791 2°54.671 9 16 14.3 101610 40
2012-05-31 15:49 51°14.644 2°54.879 9 13 14.4 101620 40
2012-05-31 15:50 51°14.493 2°55.071 8.3 8 14.4 101610 40
2012-05-31 15:51 51°14.338 2°55.239 8.4 9 14.5 101620 40
2012-05-31 15:52 51°14.19 2°55.368 6 360 14.5 101630 41
2012-05-31 15:53 51°14.045 2°55.477 6.9 4 14.7 101630 40
2012-05-31 15:54 51°13.914 2°55.572 3.9 347 14.8 101630 40
2012-05-31 15:55 51°13.8 2°55.656 -999 339 14.9 101630 39
2012-05-31 15:56 51°13.732 2°55.75 -999 33 15.1 101630 40
2012-05-31 15:57 51°13.683 2°55.849 -999 25 15.2 101630 40
2012-05-31 15:58 51°13.652 2°55.947 4.5 37 15.4 101630 41
2012-05-31 15:59 51°13.637 2°56.014 5.9 40 15.4 101620 39